Regional Weather Roundup
Issued by NWS Kansas City/Pleasant Hill, MO

Home | Current Version | Previous Version | Text Only | Print | Product List | Glossary On
Versions: 1 2 3 4 5 6 7 8 9 10 11 12 13 14 15 16 17 18 19 20 21 22 23 24 25 26 27 28 29 30 31 32 33 34 35 36 37 38 39 40 41 42 43 44 45 46 47 48 49 50
000
ASUS43 KEAX 020511
RWREAX

WEATHER ROUNDUP FOR EASTERN KANSAS AND NORTHWEST MISSOURI
NATIONAL WEATHER SERVICE KANSAS CITY/PLEASANT HILL MO
1100 PM CST SUN MAR 01 2015

KSZ040-057-103>105-MOZ028-029-037-043-020600-
...KANSAS CITY METROPOLITAN AREA...

CITY           SKY/WX    TMP DP  RH WIND       PRES   REMARKS
K.C. INTL      PTCLDY    26  19  74 SW3       30.48R
K.C. DOWNTOWN  PTCLDY    26  22  84 CALM      30.49R
LEES SUMMIT    PTCLDY    26  19  74 CALM      30.48R
OLATHE - IXD   PTCLDY    22  18  85 CALM      30.49R
OLATHE - OJC   PTCLDY    23  20  88 CALM      30.47R
LAWRENCE       CLEAR     20  17  88 SE3       30.49R

$$

MOZ001>008-011>017-020>025-030>033-038>040-044>046-053-054-020600-
...NORTHERN AND CENTRAL MISSOURI...

CITY           SKY/WX    TMP DP  RH WIND       PRES   REMARKS
ST. JOSEPH     MOCLDY    26  22  84 S3        30.49R
MOSBY            N/A     23  21  93 CALM      30.50R
WARRENSBURG    PTCLDY    19  18  93 CALM      30.49S
WHITEMAN AFB   PTCLDY    17  15  91 SW2       30.48R
CLINTON        PTCLDY    21  19  93 CALM      30.50S FOG
SEDALIA        PTCLDY    25  18  74 W5        30.50R WCI  19
WARSAW         NOT AVBL
MARSHALL       MOCLDY    25  21  86 CALM      30.49R
CHILLICOTHE      N/A     27  21  78 CALM      30.49R
MOBERLY        MOCLDY    23  18  80 CALM      30.49R
KIRKSVILLE     CLOUDY    22  19  89 CALM      30.46F

$$

MOZ041-047>049-056>058-063>065-088>090-097-020600-
...EASTERN AND SOUTHERN MISSOURI...

CITY           SKY/WX    TMP DP  RH WIND       PRES   REMARKS
ST. LOUIS INTL PTCLDY    24  19  81 CALM      30.49R
SPIRIT OF STL  PTCLDY    18  14  84 CALM      30.49R FOG
COLUMBIA       PTCLDY    21  18  88 NW5       30.48R WCI  15
JEFFERSON CITY PTCLDY    18  15  88 CALM      30.51R
MEXICO         MOCLDY    21  21 100 W5        30.48R WCI  15
HANNIBAL       CLOUDY    25  18  74 W6        30.48R WCI  18
ROLLA          FAIR      13  11  92 NW3       30.44S FOG
OSAGE BEACH    PTCLDY    19  18  93 CALM      30.48R
SPRINGFIELD    PTCLDY    26  21  81 N6        30.46R WCI  19
BRANSON        CLOUDY    28  27  93 N5        30.45R WCI  23
NEVADA         PTCLDY    21  19  93 E3        30.50S
JOPLIN         PTCLDY    24  20  84 NE5       30.49R WCI  18
WEST PLAINS    CLOUDY    30  22  72 N8        30.44R WCI  22

$$

IAZ060-094-KSZ022-034>040-054-083-096-NEZ052-066-093-020600-
...KANSAS...SOUTHEAST NEBRASKA AND IOWA...

CITY           SKY/WX    TMP DP  RH WIND       PRES   REMARKS
TOPEKA         CLEAR     24  19  81 CALM      30.49R
MANHATTAN      PTCLDY    22  19  89 CALM      30.48R
EMPORIA        PTCLDY    20  17  88 S5        30.46S WCI  13
CHANUTE        PTCLDY    19  17  92 CALM      30.49R
WICHITA        PTCLDY    18  15  88 SW3       30.47R
OMAHA          PTCLDY    23  17  78 N5        30.48R WCI  17
LINCOLN        PTCLDY    23  16  74 N8        30.47R WCI  14
FALLS CITY     CLOUDY    27  20  75 CALM      30.47R
LAMONI         CLOUDY    27  18  69 S3        30.44R
DES MOINES     PTCLDY    23  14  68 CALM      30.45R

$$



USA.gov is the U.S. government's official web portal to all federal, state and local government web resources and services.